DL6MAA-11 Weather Reports


time (UTC)temp
C
wind
direction
speed
KPH
gust
KPH
rain 1hr
cm
rain 24hr
cm
rain mn
cm
humidity
%
barometer
mb
20260905104201 16 198 0.0 0.0 0.00 0.00 0.33 84 1020.9
20260905103659 16 196 0.0 0.0 0.00 0.00 0.33 85 1020.9
20260905103205 15 165 0.0 0.0 0.00 0.00 0.33 84 1020.9
20260905102650 15 295 0.0 0.0 0.00 0.00 0.33 84 1020.9
20260905102156 16 195 0.0 0.0 0.00 0.00 0.33 85 1020.9
20260905101655 15 192 1.6 0.0 0.00 0.00 0.33 84 1020.9
20260905101157 15 229 1.6 0.0 0.00 0.00 0.33 84 1021.0
20260905100707 15 0.0 0.0 0.00 0.00 0.33 85 1021.0
20260905100152 15 0.0 0.0 0.00 0.00 0.33 86 1021.0
20260905095705 15 182 0.0 0.0 0.00 0.00 0.33 86 1021.0
20260905095150 15 183 0.0 0.0 0.00 0.00 0.33 86 1021.0
20260905094654 15 190 1.6 0.0 0.00 0.00 0.33 85 1021.0
20260905094155 15 175 1.6 0.0 0.00 0.00 0.30 85 1021.0
20260905093701 15 171 1.6 0.0 0.00 0.00 0.28 84 1021.0
20260905093201 15 200 1.6 0.0 0.00 0.00 0.25 84 1021.0
20260905092705 15 130 1.6 0.0 0.00 0.00 0.23 84 1021.1
20260905092156 15 141 1.6 0.0 0.00 0.00 0.18 84 1021.1
20260905091659 15 155 1.6 0.0 0.00 0.00 0.15 84 1021.1
20260905091147 15 168 1.6 0.0 0.00 0.00 0.15 84 1020.9
20260905090653 15 159 1.6 0.0 0.00 0.00 0.15 83 1020.9
20260905090205 15 187 1.6 0.0 0.00 0.00 0.15 84 1020.9
20260905085701 14 113 1.6 0.0 0.00 0.00 0.15 83 1020.5
20260905085202 15 109 1.6 0.0 0.00 0.00 0.15 83 1020.5
20260905084655 15 156 1.6 0.0 0.00 0.00 0.15 83 1020.5
20260905084157 15 84 0.0 0.0 0.00 0.00 0.13 83 1021.1
20260905083706 15 343 0.0 0.0 0.00 0.00 0.13 83 1021.1
20260905083151 15 321 0.0 0.0 0.00 0.00 0.13 83 1021.1
20260905082657 14 321 1.6 0.0 0.00 0.00 0.13 82 1021.0
20260905082153 15 355 1.6 0.0 0.00 0.00 0.13 82 1021.0
20260905081651 15 355 1.6 0.0 0.00 0.00 0.10 81 1021.0
20260905081200 15 12 0.0 0.0 0.00 0.00 0.10 80 1020.4
20260905080706 15 56 0.0 0.0 0.00 0.00 0.08 79 1020.4
20260905080155 15 57 0.0 0.0 0.00 0.00 0.05 78 1020.4
20260905075706 15 347 0.0 0.0 0.00 0.00 0.05 76 1020.2
20260905075154 16 360 0.0 0.0 0.00 0.00 0.05 76 1020.2
20260905074700 16 32 0.0 0.0 0.00 0.00 0.05 75 1020.2
20260905074200 16 39 0.0 0.0 0.00 0.00 0.05 76 1019.7
20260905073708 16 69 0.0 0.0 0.00 0.00 0.05 76 1019.7
20260905073147 16 75 0.0 0.0 0.00 0.00 0.05 76 1019.7
20260905072648 16 126 0.0 0.0 0.00 0.00 0.05 78 1019.8
20260905072158 15 126 0.0 0.0 0.00 0.00 0.05 78 1019.8
20260905071706 15 131 0.0 0.0 0.00 0.00 0.05 78 1019.8
20260905071149 15 132 0.0 0.0 0.00 0.00 0.05 78 1019.7
20260905070649 15 132 0.0 0.0 0.00 0.00 0.05 78 1019.7
20260905070201 15 134 0.0 0.0 0.00 0.00 0.05 78 1019.7
20260905065707 15 134 0.0 0.0 0.00 0.00 0.05 77 1019.7
20260905065206 15 183 0.0 0.0 0.00 0.00 0.03 76 1019.7
20260905064657 15 360 0.0 0.0 0.00 0.00 0.03 76 1019.7
20260905064149 15 183 0.0 0.0 0.00 0.00 0.03 76 1019.7
20260905063700 15 184 0.0 0.0 0.00 0.00 0.03 75 1019.7
20260905063207 15 184 0.0 0.0 0.00 0.00 0.03 74 1019.7
20260905062705 15 184 0.0 0.0 0.00 0.00 0.03 74 1019.3
20260905062152 15 183 0.0 0.0 0.00 0.00 0.03 73 1019.3
20260905061653 15 183 0.0 0.0 0.00 0.00 0.00 73 1019.3
20260905061200 15 186 0.0 0.0 0.00 0.00 0.00 73 1019.5
20260905060652 16 188 0.0 0.0 0.00 0.00 0.00 72 1019.5
20260905060202 16 242 0.0 0.0 0.00 0.00 0.00 72 1019.5
20260905055652 16 259 0.0 0.0 0.00 0.00 0.00 72 1019.3
20260905055157 16 360 0.0 0.0 0.00 0.00 0.00 71 1019.3
20260905054658 16 360 0.0 0.0 0.00 0.00 0.00 71 1019.3
20260905054200 16 348 0.0 0.0 0.00 0.00 0.00 71 1019.8
20260905053650 16 348 0.0 0.0 0.00 0.00 0.00 70 1019.8
20260905053150 16 348 0.0 0.0 0.00 0.00 0.00 70 1019.8
20260905052658 16 348 0.0 0.0 0.00 0.00 0.00 69 1019.8
20260905052207 16 348 0.0 0.0 0.00 0.00 0.00 68 1019.8
20260905051653 16 346 0.0 0.0 0.00 0.00 0.00 67 1019.8
20260905051208 16 351 0.0 0.0 0.00 0.00 0.00 66 1019.8
20260905050656 16 346 0.0 0.0 0.00 0.00 0.00 65 1019.8
20260905050158 16 346 0.0 0.0 0.00 0.00 0.00 65 1019.8
20260905045658 16 346 0.0 0.0 0.00 0.00 0.00 64 1019.6
20260905045201 16 298 3.2 0.0 0.00 0.00 0.00 63 1019.6
20260905044655 17 344 3.2 0.0 0.00 0.00 0.00 63 1019.6
20260905044149 17 333 1.6 0.0 0.00 0.00 0.00 63 1019.2
20260905043704 17 360 3.2 0.0 0.00 0.00 0.00 63 1019.2
20260905043155 17 336 4.8 0.0 0.00 0.00 0.00 63 1019.2
20260905042659 17 22 3.2 0.0 0.00 0.00 0.00 63 1019.0
20260905042202 17 28 3.2 0.0 0.00 0.00 0.00 65 1019.0
20260905041703 17 10 1.6 0.0 0.00 0.00 0.00 65 1019.0
20260905041208 17 24 1.6 0.0 0.00 0.00 0.00 65 1018.2
20260905040650 17 41 1.6 0.0 0.00 0.00 0.00 66 1018.2
20260905040208 17 60 3.2 0.0 0.00 0.00 0.00 66 1018.2
20260905035652 18 40 4.8 0.0 0.00 0.00 0.00 66 1017.9
20260905035157 18 43 4.8 0.0 0.00 0.00 0.00 66 1017.9
20260905034656 18 320 3.2 0.0 0.00 0.00 0.00 67 1017.9
20260905034205 18 52 3.2 0.0 0.00 0.00 0.00 67 1017.7
20260905033651 18 19 1.6 0.0 0.00 0.00 0.00 68 1017.7
20260905033154 18 19 3.2 0.0 0.00 0.00 0.00 68 1017.7
20260905032658 18 349 3.2 0.0 0.00 0.00 0.00 67 1017.0
20260905032159 18 10 1.6 0.0 0.00 0.00 0.00 68 1017.0
20260905031702 18 15 1.6 0.0 0.00 0.00 0.00 68 1017.0
20260905031204 18 40 0.0 0.0 0.00 0.00 0.00 69 1016.7
20260905030649 18 24 0.0 0.0 0.00 0.00 0.00 69 1016.7
20260905030201 18 360 0.0 0.0 0.00 0.00 0.00 68 1016.7
20260905025704 18 252 0.0 0.0 0.00 0.00 0.00 67 1017.3
20260905025149 18 252 0.0 0.0 0.00 0.00 0.00 66 1017.3
20260905024652 18 252 0.0 0.0 0.00 0.00 0.00 66 1017.3
20260905024155 19 252 0.0 0.0 0.00 0.00 0.00 66 1016.8
20260905023655 19 252 0.0 0.0 0.00 0.00 0.00 66 1016.8
20260905023205 19 252 0.0 0.0 0.00 0.00 0.00 65 1016.8
20260905022701 19 252 0.0 0.0 0.00 0.00 0.00 65 1016.8
20260905022154 20 252 0.0 0.0 0.00 0.00 0.00 64 1016.8
20260905021650 20 252 0.0 0.0 0.00 0.00 0.00 64 1016.8
20260905021155 20 252 0.0 0.0 0.00 0.00 0.00 63 1016.8
20260905020655 20 252 0.0 0.0 0.00 0.00 0.00 63 1016.8
20260905015705 20 252 0.0 0.0 0.00 0.00 0.00 63 1016.6
20260905015208 20 252 0.0 0.0 0.00 0.00 0.00 63 1016.6
20260905014651 20 360 0.0 0.0 0.00 0.00 0.00 63 1016.6
20260905014200 20 252 0.0 0.0 0.00 0.00 0.00 62 1016.3
20260905013659 21 262 0.0 0.0 0.00 0.00 0.00 62 1016.3
20260905013153 21 252 0.0 0.0 0.00 0.00 0.00 61 1016.3
20260905012655 21 252 0.0 0.0 0.00 0.00 0.00 61 1016.3
20260905012158 21 252 0.0 0.0 0.00 0.00 0.00 61 1016.3
20260905011657 21 248 1.6 0.0 0.00 0.00 0.00 61 1016.3
20260905011202 21 242 3.2 0.0 0.00 0.00 0.00 61 1016.3
20260905010708 21 286 1.6 0.0 0.00 0.00 0.00 61 1016.3
20260905010152 21 257 1.6 0.0 0.00 0.00 0.00 61 1016.3
20260905005653 21 255 1.6 0.0 0.00 0.00 0.00 61 1016.2
20260905005204 21 272 0.0 0.0 0.00 0.00 0.00 60 1016.2
20260905004651 21 236 0.0 0.0 0.00 0.00 0.00 60 1016.2
20260905004153 21 360 0.0 0.0 0.00 0.00 0.00 59 1016.1
20260905003651 22 232 0.0 0.0 0.00 0.00 0.00 59 1016.1
20260905003205 22 227 0.0 0.0 0.00 0.00 0.00 58 1016.1
20260905002651 22 276 0.0 0.0 0.00 0.00 0.00 58 1016.1
20260905002156 22 290 1.6 0.0 0.00 0.00 0.00 58 1016.1
20260905001659 22 315 1.6 0.0 0.00 0.00 0.00 57 1016.1
20260905001155 22 279 1.6 0.0 0.00 0.00 0.00 57 1016.0
20260905000649 22 294 1.6 0.0 0.00 0.00 0.00 56 1016.0
20260905000204 22 187 0.0 0.0 0.00 0.00 0.00 56 1016.0
20260904235705 22 239 0.0 0.0 0.00 0.00 0.00 56 1015.8
20260904235207 22 254 0.0 0.0 0.00 0.00 0.00 56 1015.8
20260904234652 22 191 0.0 0.0 0.00 0.00 0.00 56 1015.8
20260904234207 22 225 0.0 0.0 0.00 0.00 0.00 55 1015.6
20260904233708 22 190 0.0 0.0 0.00 0.00 0.00 55 1015.6
20260904233153 22 200 0.0 0.0 0.00 0.00 0.00 55 1015.6
20260904232701 22 217 0.0 0.0 0.00 0.00 0.00 55 1015.5
20260904232209 22 203 0.0 0.0 0.00 0.00 0.00 55 1015.5
20260904231653 22 360 0.0 0.0 0.00 0.00 0.00 55 1015.5
20260904231205 23 194 0.0 0.0 0.00 0.00 0.00 55 1015.6
20260904230700 23 131 1.6 0.0 0.00 0.00 0.00 55 1015.6
20260904230154 23 224 1.6 0.0 0.00 0.00 0.00 55 1015.6
20260904225649 23 192 1.6 0.0 0.00 0.00 0.00 55 1015.5
20260904225200 23 180 1.6 0.0 0.00 0.00 0.00 55 1015.5
20260904224701 23 215 0.0 0.0 0.00 0.00 0.00 54 1015.5
20260904224202 23 280 0.0 0.0 0.00 0.00 0.00 54 1015.5
20260904223706 23 169 0.0 0.0 0.00 0.00 0.00 55 1015.5
20260904223155 23 252 0.0 0.0 0.00 0.00 0.00 55 1015.5
20260904222702 23 200 0.0 0.0 0.00 0.00 0.00 55 1015.5
20260904222205 23 186 0.0 0.0 0.00 0.00 0.00 55 1015.5
20260904221709 22 157 0.0 0.0 0.00 0.00 0.00 55 1015.5
20260904221154 22 254 0.0 0.0 0.00 0.00 0.00 55 1015.6
20260904220659 22 236 0.0 0.0 0.00 0.00 0.00 55 1015.6
20260904220153 22 260 0.0 0.0 0.00 0.00 0.00 54 1015.6
20260904215659 22 215 0.0 0.0 0.00 0.00 0.00 54 1015.5
20260904215147 22 200 0.0 0.0 0.00 0.00 0.00 54 1015.5
20260904214656 23 222 0.0 0.0 0.00 0.00 0.00 54 1015.5
20260904214204 23 184 0.0 0.0 0.00 0.00 0.00 54 1015.4
20260904213702 23 161 0.0 0.0 0.00 0.00 0.00 54 1015.4
20260904213208 23 198 0.0 0.0 0.00 0.00 0.00 54 1015.4
20260904212659 23 360 0.0 0.0 0.00 0.00 0.00 54 1015.3
20260904212205 23 220 0.0 0.0 0.00 0.00 0.00 54 1015.3
20260904211648 23 159 0.0 0.0 0.00 0.00 0.00 53 1015.3
20260904211156 23 244 0.0 0.0 0.00 0.00 0.00 53 1014.5
20260904210705 23 138 0.0 0.0 0.00 0.00 0.00 53 1014.5
20260904210153 23 248 0.0 0.0 0.00 0.00 0.00 53 1014.5
20260904205701 23 204 0.0 0.0 0.00 0.00 0.00 52 1014.7
20260904205207 23 207 0.0 0.0 0.00 0.00 0.00 52 1014.7
20260904204709 23 210 0.0 0.0 0.00 0.00 0.00 52 1014.7
20260904204153 23 298 0.0 0.0 0.00 0.00 0.00 52 1014.7
20260904203659 23 200 0.0 0.0 0.00 0.00 0.00 52 1014.7
20260904203159 23 229 0.0 0.0 0.00 0.00 0.00 52 1014.7
20260904202705 23 132 0.0 0.0 0.00 0.00 0.00 52 1014.5
20260904202200 23 183 0.0 0.0 0.00 0.00 0.00 52 1014.5
20260904201705 23 164 1.6 0.0 0.00 0.00 0.00 52 1014.5
20260904201148 23 360 0.0 0.0 0.00 0.00 0.00 51 1014.7
20260904200651 23 252 0.0 0.0 0.00 0.00 0.00 51 1014.7
20260904200203 23 234 0.0 0.0 0.00 0.00 0.00 51 1014.7
20260904195651 23 360 0.0 0.0 0.00 0.00 0.00 51 1014.6
20260904195156 23 236 0.0 0.0 0.00 0.00 0.00 51 1014.6
20260904194656 23 360 0.0 0.0 0.00 0.00 0.00 50 1014.6
20260904194159 23 224 0.0 0.0 0.00 0.00 0.00 50 1014.6
20260904193706 23 158 0.0 0.0 0.00 0.00 0.00 50 1014.6
20260904193206 23 213 0.0 0.0 0.00 0.00 0.00 50 1014.6
20260904192658 23 192 0.0 0.0 0.00 0.00 0.00 50 1014.4
20260904192202 24 176 0.0 0.0 0.00 0.00 0.00 49 1014.4
20260904191654 24 200 0.0 0.0 0.00 0.00 0.00 49 1014.4
20260904191202 24 190 0.0 0.0 0.00 0.00 0.00 49 1014.4
20260904190703 24 360 0.0 0.0 0.00 0.00 0.00 49 1014.4
20260904190205 24 186 0.0 0.0 0.00 0.00 0.00 49 1014.4
20260904185648 24 186 0.0 0.0 0.00 0.00 0.00 49 1014.3
20260904185159 24 360 0.0 0.0 0.00 0.00 0.00 48 1014.3
20260904184701 25 69 0.0 0.0 0.00 0.00 0.00 48 1014.3
20260904184207 25 225 0.0 0.0 0.00 0.00 0.00 48 1014.2
20260904183659 25 208 0.0 0.0 0.00 0.00 0.00 48 1014.2
20260904183158 25 125 0.0 0.0 0.00 0.00 0.00 47 1014.2
20260904182704 25 239 0.0 0.0 0.00 0.00 0.00 46 1013.7
20260904182205 25 211 0.0 0.0 0.00 0.00 0.00 46 1013.7
20260904181652 25 257 0.0 0.0 0.00 0.00 0.00 46 1013.7
20260904181159 25 275 0.0 0.0 0.00 0.00 0.00 45 1013.9
20260904180705 25 223 0.0 0.0 0.00 0.00 0.00 45 1013.9
20260904180153 26 360 1.6 0.0 0.00 0.00 0.00 45 1013.9
20260904175648 26 198 0.0 0.0 0.00 0.00 0.00 44 1013.8
20260904175210 26 215 0.0 0.0 0.00 0.00 0.00 44 1013.8
20260904174658 26 203 1.6 0.0 0.00 0.00 0.00 44 1013.8
20260904174157 26 246 1.6 0.0 0.00 0.00 0.00 44 1013.6
20260904173659 26 177 1.6 0.0 0.00 0.00 0.00 43 1013.6
20260904173207 26 230 1.6 0.0 0.00 0.00 0.00 43 1013.6
20260904172657 26 275 1.6 0.0 0.00 0.00 0.00 43 1013.7
20260904172200 26 360 1.6 0.0 0.00 0.00 0.00 42 1013.7
20260904171702 26 252 1.6 0.0 0.00 0.00 0.00 42 1013.7
20260904171207 27 171 3.2 0.0 0.00 0.00 0.00 42 1013.5
20260904170710 27 292 3.2 0.0 0.00 0.00 0.00 42 1013.5
20260904170155 27 360 3.2 0.0 0.00 0.00 0.00 42 1013.5
20260904165706 27 246 1.6 0.0 0.00 0.00 0.00 42 1013.5
20260904165157 27 119 1.6 0.0 0.00 0.00 0.00 42 1013.5
20260904164700 27 360 3.2 0.0 0.00 0.00 0.00 42 1013.5
20260904164202 27 187 4.8 0.0 0.00 0.00 0.00 42 1013.5
20260904163708 27 360 6.4 0.0 0.00 0.00 0.00 42 1013.5
20260904163156 27 257 8.0 0.0 0.00 0.00 0.00 41 1013.5
20260904162654 27 360 8.0 0.0 0.00 0.00 0.00 41 1013.4
20260904162209 28 158 8.0 0.0 0.00 0.00 0.00 41 1013.4
20260904161701 28 360 6.4 0.0 0.00 0.00 0.00 40 1013.4
20260904161204 28 242 3.2 0.0 0.00 0.00 0.00 41 1013.3
20260904160652 28 142 3.2 0.0 0.00 0.00 0.00 39 1013.3
20260904160153 28 275 4.8 0.0 0.00 0.00 0.00 39 1013.3
20260904155653 28 360 3.2 0.0 0.00 0.00 0.00 39 1013.3
20260904155158 28 196 4.8 0.0 0.00 0.00 0.00 38 1013.3
20260904154709 28 194 6.4 0.0 0.00 0.00 0.00 38 1013.3
20260904154148 28 360 4.8 0.0 0.00 0.00 0.00 38 1013.4
20260904153659 29 360 3.2 0.0 0.00 0.00 0.00 39 1013.4
20260904153207 29 360 4.8 0.0 0.00 0.00 0.00 38 1013.4
20260904152709 29 169 8.0 0.0 0.00 0.00 0.00 38 1013.7
20260904152154 29 241 9.7 0.0 0.00 0.00 0.00 39 1013.7
20260904151706 29 360 6.4 0.0 0.00 0.00 0.00 37 1013.7
20260904151157 29 270 4.8 0.0 0.00 0.00 0.00 37 1013.6
20260904150652 29 227 4.8 0.0 0.00 0.00 0.00 37 1013.6
20260904150206 29 281 4.8 0.0 0.00 0.00 0.00 37 1013.6
20260904145701 29 186 4.8 0.0 0.00 0.00 0.00 37 1013.7
20260904145159 29 61 6.4 0.0 0.00 0.00 0.00 37 1013.7
20260904144701 29 276 4.8 0.0 0.00 0.00 0.00 37 1013.7
20260904144202 29 360 6.4 0.0 0.00 0.00 0.00 37 1013.8
20260904143655 29 360 4.8 0.0 0.00 0.00 0.00 37 1013.8
20260904143158 29 299 6.4 0.0 0.00 0.00 0.00 37 1013.8
20260904142703 29 138 11.3 0.0 0.00 0.00 0.00 38 1013.9
20260904142153 29 360 11.3 0.0 0.00 0.00 0.00 37 1013.9
20260904141656 28 275 11.3 0.0 0.00 0.00 0.00 38 1013.9
20260904141204 28 360 11.3 0.0 0.00 0.00 0.00 37 1014.2
20260904140707 28 245 12.9 0.0 0.00 0.00 0.00 38 1014.2
20260904140150 28 275 14.5 0.0 0.00 0.00 0.00 38 1014.2
20260904135711 28 156 11.3 0.0 0.00 0.00 0.00 38 1014.4
20260904135157 29 153 9.7 0.0 0.00 0.00 0.00 38 1014.4
20260904134709 29 360 9.7 0.0 0.00 0.00 0.00 36 1014.4
20260904134157 29 163 8.0 0.0 0.00 0.00 0.00 37 1014.4
20260904133703 29 217 6.4 0.0 0.00 0.00 0.00 37 1014.4
20260904133155 29 265 6.4 0.0 0.00 0.00 0.00 37 1014.4
20260904132657 29 304 4.8 0.0 0.00 0.00 0.00 37 1014.4
20260904132205 29 360 3.2 0.0 0.00 0.00 0.00 38 1014.4
20260904131652 29 187 3.2 0.0 0.00 0.00 0.00 38 1014.4
20260904131159 29 278 3.2 0.0 0.00 0.00 0.00 38 1014.6
20260904130705 28 184 3.2 0.0 0.00 0.00 0.00 38 1014.6
20260904130149 28 140 3.2 0.0 0.00 0.00 0.00 38 1014.6
20260904125657 28 0.0 0.0 0.00 0.00 0.00 38 1015.0
20260904125207 28 147 4.8 0.0 0.00 0.00 0.00 39 1015.0
20260904124653 28 186 4.8 0.0 0.00 0.00 0.00 38 1015.0
20260904124158 28 233 4.8 0.0 0.00 0.00 0.00 38 1015.3
20260904123704 28 217 3.2 0.0 0.00 0.00 0.00 38 1015.3
20260904123207 28 161 4.8 0.0 0.00 0.00 0.00 39 1015.3
20260904122650 28 148 4.8 0.0 0.00 0.00 0.00 38 1015.5
20260904122158 28 196 4.8 0.0 0.00 0.00 0.00 38 1015.5
20260904121700 28 200 6.4 0.0 0.00 0.00 0.00 39 1015.5
20260904121202 28 360 8.0 0.0 0.00 0.00 0.00 38 1015.9
20260904120710 28 236 12.9 0.0 0.00 0.00 0.00 39 1015.9
20260904120153 27 281 12.9 0.0 0.00 0.00 0.00 38 1015.9
20260904115658 28 284 8.0 0.0 0.00 0.00 0.00 37 1015.7
20260904115201 28 217 4.8 0.0 0.00 0.00 0.00 39 1015.7
20260904114711 28 267 3.2 0.0 0.00 0.00 0.00 40 1015.7
20260904114154 28 360 4.8 0.0 0.00 0.00 0.00 40 1015.9
20260904113652 27 360 4.8 0.0 0.00 0.00 0.00 40 1015.9
20260904113204 28 360 4.8 0.0 0.00 0.00 0.00 40 1015.9
20260904112707 27 175 6.4 0.0 0.00 0.00 0.00 41 1016.4
20260904112153 27 168 9.7 0.0 0.00 0.00 0.00 41 1016.4
20260904111659 27 304 6.4 0.0 0.00 0.00 0.00 41 1016.4
20260904111201 27 214 4.8 0.0 0.00 0.00 0.00 42 1016.8
20260904110703 27 176 8.0 0.0 0.00 0.00 0.00 42 1016.8
20260904110204 27 360 6.4 0.0 0.00 0.00 0.00 41 1016.8
20260904105652 27 271 3.2 0.0 0.00 0.00 0.00 41 1017.0
20260904105202 27 169 3.2 0.0 0.00 0.00 0.00 41 1017.0
20260904104704 27 360 4.8 0.0 0.00 0.00 0.00 41 1017.0